MAX VALIER SAT (42778 NORAD) Tracking and Keplerian Element Data

This shows tracking and keplerian element data for the satellite.

Feedback or suggestion? Click here.




ElementValue
Catalog42778
NameMAX VALIER SAT
Epoch Orbit18464
Epoch Day293.73928842
Epoch Year2020
RAAN343.8552
Inclination97.2908
Eccentricity0.0010672
Argument of Perigee310.0049
Mean Anonmoly50.025
Mean Motion15.22836672
Decay Rate1.048E-05
L11 42778U 17036P 20293.73928842 .00001048 00000-0 47668-4 0 9992
L22 42778 97.2908 343.8552 0010672 310.0049 50.0250 15.22836672184645

Live tracking and technical data element details for MAX VALIER SAT (NORAD 42778). MAX VALIER SAT can be tracked NOW for your location showing map with azimuth and elevation plus other details from your city location.

Track the satellite on the map from your city or location and see movement details for azimuth, elevation, latitude, longitude, range, height, and movement on the map or in text.







IsCatalogInMostPopularTable: catalog: 42778, numindb: 442
Update: records affected: 1



GetName: 42778 MAX VALIER SAT

Hit Count: updated at: Tue, 20 Oct 2020 18:15:32 GMT